Weather Roundup
Issued by NWS Chicago, IL

Home | Current Version | Previous Version | Text Only | Print | Product List | Glossary On
Versions: 1 2 3 4 5 6 7 8 9 10 11 12 13 14 15 16 17 18 19 20 21 22 23 24 25 26 27 28 29 30 31 32 33 34 35 36 37 38 39 40 41 42 43 44 45 46 47 48 49 50
000
NZUS59 KLOT 220906
HRRLOT

CHICAGO AREA WEATHER ROUNDUP
NATIONAL WEATHER SERVICE CHICAGO/ROMEOVILLE IL
400 AM CDT FRI AUG 22 2014

NOTE: "FAIR" INDICATES FEW OR NO CLOUDS BELOW 12,000 FEET WITH NO
SIGNIFICANT WEATHER AND/OR OBSTRUCTIONS TO VISIBILITY.

* THESE STATIONS ARE NOT UNDER NWS QUALITY CONTROL. THEY ALSO MAY NOT
  REPORT WEATHER SUCH AS PRECIPITATION OR FOG.

ILZ005-006-012>014-019>023-221000-
NORTHEAST ILLINOIS

CITY           SKY/WX    TMP DP  RH WIND       PRES   REMARKS
OHARE          LGT RAIN  73  69  87 SE5       29.90F
MIDWAY         RAIN      74  73  97 W7        29.91F FOG
AURORA         CLOUDY    74  71  91 S10       29.92R FOG
LANSING*       RAIN      71  70  97 CALM      29.93S
JOLIET*        CLOUDY    72  70  93 CALM      29.95R
WAUKEGAN       FOG       71  70  96 CALM      29.90R VSB 1/2
DUPAGE AIRPORT CLOUDY    74  72  93 SE6       29.91S
WHEELING       CLOUDY    74  72  93 S5        29.91F
KANKAKEE*      CLOUDY    73  72  95 N5        29.92R
MORRIS*        CLOUDY    73  73 100 SE3       29.92R
LEWIS AIRPORT* CLOUDY    73  73 100 SW8       29.93R
NORTHERLY IS     N/A     73  70  90 S6          N/A
$$

WIZ051-052-058>065-066-070>072-221000-
SOUTHEAST WISCONSIN

CITY           SKY/WX    TMP DP  RH WIND       PRES   REMARKS
MILWAUKEE      FOG       71  69  93 S6        29.91R VSB 1/8
KENOSHA*       FOG       70  70 100 S3        29.92R VSB 1/4
RACINE*        FOG       71  70  96 S5        29.92R VSB 1/4
BURLINGTON     FOG       68  68  99 SE3       29.92R VSB 1/4
WAUKESHA       FOG       68  68 100 E6        29.92R VSB 1/2
WEST BEND      FOG       66  64  94 CALM      29.91S VSB 1/4
$$

INZ001>003-010>013-019-020-221000-
NORTHWEST INDIANA

CITY           SKY/WX    TMP DP  RH WIND       PRES   REMARKS
GARY*          RAIN      73  72  95 SE5       29.93S
MICHIGAN CITY* NOT AVBL
RENSSELAER*    NOT AVBL
VALPARAISO     LGT RAIN  72  70  93 CALM      29.94F
$$

LMZ740>746-221000-
SOUTHERN LAKE MICHIGAN

STATION/POSITION TIME  SKY/WX   TEMP WIND        PRES    VSBY
                                AIR  DIR/SP/G
                 (UTC)          (F)  (DEG/KT/KT) (MB)    (MI)
HARRISON CRIB    0900            72  200/ 11/ 14   N/A
BURNHAM HARBOR   0900            73  200/  5/ 11   N/A
CALUMET HARBOR   0900            71  190/  6/  7 1011.8F
BURNS HARBOR     NOT AVBL
MICHIGAN CITY    0900            73  160/ 10/ 13   N/A
$$

ABBREVIATIONS USED IN REMARKS
   TC - TEMPERATURE IN CELSIUS
  WCI - WIND CHILL INDEX
   HX - HEAT INDEX
  VSB - VISIBILITY
$$


USA.gov is the U.S. government's official web portal to all federal, state and local government web resources and services.